Terug naar catalogus

COSMOS 249 DEB

ActiefLEO
NORAD 19317·DEBRIS·🇷🇺 Russia

Gelanceerd Oct 20, 1968 vanaf Baikonur Cosmodrome

Loading…

Volgende Passages (komende 24 uur)

TLE

VersSource: Space-Track

Epoch: Sep 14, 2026, 03:05 UTC

1 19317U 68091DH  26257.12895144  .00000415  00000-0  19523-3 0  9994
2 19317  62.8490  48.1013 0713707 227.8706 125.9526 13.43008886859313

Volg COSMOS 249 DEB in realtime met AllMySat

Download on the App Store